Location: Plzen
(49.7500°N, 13.3670°E)
Time: 04:24:14
(UTC+01:00)

ISS - Visible Passes

Search period start: 22 March 2023 00:00
Search period end: 01 April 2023 01:00
Orbit: 414 x 423 km, 51.6° (Epoch: 22 March)

Date Brightness Start Highest point End Pass type
(mag) Time Alt. Az. Time Alt. Az. Time Alt. Az.
22 Mar -3.5 20:17:52 10° W 20:21:11 60° N 20:21:37 54° NE visible
23 Mar -3.5 19:29:58 10° W 19:33:19 64° N 19:35:46 17° ENE visible
23 Mar -1.8 21:06:55 10° WNW 21:08:42 29° WNW 21:08:42 29° WNW visible
24 Mar -3.6 20:19:03 10° WNW 20:22:24 65° N 20:22:47 58° NE visible
25 Mar -3.4 19:31:08 10° W 19:34:27 60° N 19:36:50 18° E visible
25 Mar -1.8 21:08:00 10° WNW 21:09:46 29° W 21:09:46 29° W visible
26 Mar -3.9 21:20:04 10° WNW 21:23:25 90° NNW 21:23:46 70° ESE visible
27 Mar -3.7 20:32:06 10° WNW 20:35:28 74° NNE 20:37:45 19° E visible
27 Mar -1.7 22:09:01 10° W 22:10:41 24° W 22:10:41 24° W visible
28 Mar -3.4 21:20:57 10° WNW 21:24:14 51° SSW 21:24:40 47° S visible
29 Mar -3.7 20:32:56 10° WNW 20:36:16 71° SSW 20:38:39 18° ESE visible
29 Mar -1.2 22:10:19 10° W 22:11:35 15° WSW 22:11:35 15° WSW visible
30 Mar -2.2 21:21:55 10° W 21:24:45 25° SW 21:25:34 23° SSW visible
31 Mar -2.6 20:33:42 10° W 20:36:49 36° SSW 20:39:36 12° SE visible
